Wind_Speed
36 36 36 36 36 36 36 36 36 36 36 36 36 36 36 36 36 36 36 36 35 35 35 35 34 35 35 35 34 34 34 33 33 33 33 33 33 32 32 32 32 32 32
38 38 37 37 38 38 38 37 37 37 37 37 37 38 38 37 37 37 37 37 37 37 37 37 37 37 37 37 37 37 36 36 36 35 35 35 35 34 35 35 34 34 33
39 39 39 39 39 39 39 39 39 39 39 38 38 39 39 39 39 39 40 39 39 39 39 39 39 39 39 39 39 39 39 38 38 38 38 38 37 37 37 36 36 35 34
40 40 40 40 40 41 41 40 40 40 40 40 40 39 39 40 40 40 41 41 41 40 41 41 41 41 41 41 41 41 41 40 40 40 40 40 40 39 39 38 37 37 37
40 40 41 41 41 42 42 42 42 42 41 41 41 41 41 41 41 41 41 42 42 42 43 43 43 43 43 43 43 43 43 43 43 43 43 42 41 40 40 39 39 38 38
41 41 41 42 43 43 43 43 43 43 42 42 42 42 41 41 42 42 42 42 43 44 44 44 44 44 44 45 45 45 45 45 45 45 44 44 42 42 41 41 41 40 40
42 41 41 42 43 43 43 43 43 43 43 43 43 43 43 43 43 43 43 44 44 44 45 44 45 46 45 45 46 46 46 47 47 46 46 45 44 44 43 43 42 42 42
42 41 41 42 43 43 43 44 44 44 45 45 45 45 45 45 44 44 44 45 45 45 45 45 45 46 46 47 47 47 47 47 47 47 47 46 46 46 46 45 44 44 43
42 42 42 42 43 43 44 45 45 45 45 46 46 46 46 47 46 46 46 47 47 47 47 47 47 47 47 47 47 48 48 48 48 47 47 48 48 48 48 48 47 47 47
43 41 41 42 43 44 44 44 45 46 47 47 48 48 48 49 49 48 47 48 48 48 48 48 49 49 49 49 49 48 49 49 48 48 48 49 49 49 49 49 49 49 49
43 42 42 42 43 44 45 46 46 47 47 47 48 49 49 49 50 50 49 48 49 49 50 50 50 49 49 49 50 50 50 50 50 49 49 49 49 50 50 50 50 51 50
43 43 44 44 44 45 46 47 47 47 48 48 48 49 49 49 50 51 51 51 50 49 49 50 50 51 51 51 51 51 51 51 51 51 50 50 50 50 51 51 51 51 50
43 42 44 45 45 45 45 46 47 48 48 49 50 50 51 51 51 51 51 51 51 50 51 51 51 52 52 52 52 52 52 52 53 53 52 52 52 52 52 52 52 51 51
42 43 44 45 45 44 45 47 48 48 49 50 50 51 51 51 51 51 51 51 51 50 50 50 51 52 52 52 52 53 53 53 54 54 53 53 53 53 52 52 52 52 52
43 45 46 46 46 46 45 46 47 49 49 50 50 49 49 50 49 50 50 50 51 50 50 50 51 52 52 52 52 52 52 53 54 54 54 54 54 53 53 52 52 52 52
43 45 46 46 47 47 46 46 46 47 48 48 48 48 48 49 49 49 49 50 51 51 51 50 51 51 51 51 51 51 52 52 52 52 52 52 53 53 52 52 51 51 52
43 44 45 45 45 46 46 45 45 45 46 47 47 47 48 49 50 50 50 50 51 51 51 50 50 50 51 51 52 52 52 52 51 51 50 51 51 52 53 52 51 51 51
44 43 44 44 44 44 44 45 44 44 44 44 45 46 47 48 49 49 49 50 51 51 51 50 49 50 50 51 52 52 52 51 51 50 49 49 50 50 51 51 52 52 51
44 44 44 43 43 43 44 44 44 44 44 45 44 45 46 47 47 48 49 49 50 50 50 50 49 49 50 50 50 50 50 50 49 49 50 49 49 49 49 50 50 50 50
43 43 43 42 42 42 42 43 44 44 45 45 46 46 46 46 47 48 48 49 49 50 50 50 49 49 48 48 48 48 48 48 48 48 49 49 49 48 48 48 49 48 49
42 42 41 40 40 40 41 42 43 43 44 45 45 46 46 47 47 47 48 48 49 49 50 50 49 48 47 47 47 47 47 48 48 48 48 48 48 48 48 48 48 47 47
41 40 40 40 40 40 41 42 43 43 44 44 44 45 45 46 46 45 46 47 48 48 48 48 47 47 47 47 47 47 46 46 47 47 48 48 49 48 47 47 48 48 47
40 39 39 39 39 40 40 41 42 42 42 43 44 44 44 45 45 45 45 46 46 46 47 47 46 46 46 46 46 46 46 46 45 46 46 46 47 48 48 47 47 46 45
38 38 38 39 39 40 40 39 40 40 41 42 43 43 44 44 44 45 44 44 44 44 44 45 46 46 46 46 46 46 46 46 45 45 46 46 46 46 46 46 45 44 43
37 37 38 38 38 39 39 39 39 40 40 41 42 42 43 43 43 44 43 44 43 43 44 44 45 45 45 45 46 45 45 45 45 45 46 46 45 45 45 44 44 44 44
36 36 36 37 37 37 38 38 39 39 40 40 40 41 41 42 42 43 43 43 43 43 43 44 44 43 43 43 43 43 44 44 45 44 43 44 44 44 44 44 44 43 43
Wind_Direction
263 263 262 262 262 262 262 261 262 262 263 264 264 265 265 265 266 267 268 269 270 270 271 270 270 271 272 273 274 275 276 277 278 279 280 281 281 281 280 278 277 277 277
263 263 263 262 262 263 263 263 262 263 264 266 266 266 266 266 266 267 268 269 270 270 271 270 270 270 271 272 273 274 275 276 276 277 278 279 279 280 280 279 278 277 277
262 262 263 263 262 263 263 263 263 264 265 266 266 266 266 266 266 266 267 268 269 270 271 270 271 272 272 272 272 273 274 275 276 276 277 278 278 279 279 278 278 277 276
263 262 262 263 263 263 263 263 262 263 265 266 267 267 267 267 267 268 268 269 269 270 270 271 271 271 272 272 273 273 273 274 275 276 276 277 277 276 277 277 277 276 276
264 263 262 262 263 263 263 263 262 262 264 265 267 267 268 267 267 268 268 268 268 269 270 271 271 271 271 272 272 273 273 274 275 276 276 276 276 275 275 276 276 277 277
265 264 264 264 263 264 264 264 263 263 263 264 266 267 267 268 269 269 269 269 269 269 270 270 270 270 271 272 272 273 273 274 275 275 275 274 274 273 273 274 275 276 276
264 264 264 264 264 265 264 264 263 264 265 266 266 267 268 268 269 269 269 269 270 270 270 270 271 271 272 272 273 273 273 274 274 274 273 272 272 272 273 273 274 274 275
264 264 264 264 264 264 264 263 264 265 266 266 267 268 268 269 269 270 270 270 270 270 271 271 271 271 272 272 273 274 275 275 273 273 272 271 270 271 272 272 272 273 274
265 266 265 265 265 264 264 264 264 265 266 266 267 268 269 268 268 269 271 271 271 271 271 271 272 272 272 273 273 273 274 274 273 272 271 271 270 271 270 271 272 272 272
266 267 267 266 265 265 265 265 266 267 266 266 267 268 269 270 270 270 270 271 270 270 271 271 272 272 272 273 273 273 273 273 273 272 271 271 270 270 271 270 271 272 272
267 268 268 267 266 266 266 266 266 267 267 267 267 268 270 271 271 271 270 270 270 271 270 270 272 272 272 273 273 273 273 272 271 271 272 272 271 270 270 270 270 271 271
268 270 269 269 268 268 267 267 267 268 268 268 269 270 271 272 272 273 272 272 272 272 271 271 271 272 273 273 273 273 273 271 271 270 271 271 271 270 270 269 269 269 270
269 270 271 270 270 269 268 267 268 269 269 270 270 271 271 272 273 274 274 272 272 272 271 271 272 273 273 272 272 272 271 271 271 271 270 271 271 270 270 270 270 270 269
269 271 271 271 271 270 269 269 269 269 270 270 271 271 271 273 274 275 274 273 273 272 272 272 273 274 273 272 272 272 270 270 270 271 271 271 271 270 270 270 269 269 269
271 271 272 272 272 272 272 272 272 270 270 270 270 271 272 272 274 274 274 274 274 274 273 273 273 273 273 272 272 271 270 270 270 270 270 270 271 271 271 270 269 268 269
274 274 274 273 272 272 272 272 272 272 270 269 270 270 272 272 273 274 274 274 275 275 274 274 274 273 272 272 272 271 271 271 271 272 271 270 270 270 269 270 270 269 269
276 276 275 275 274 274 273 272 273 272 271 269 270 271 271 271 273 273 274 274 275 276 276 276 275 273 272 271 270 271 270 270 270 271 272 272 272 270 269 269 268 268 268
277 277 276 275 275 275 275 274 273 273 272 271 271 272 272 272 273 273 274 275 276 277 278 277 275 274 273 271 271 271 270 270 270 270 271 272 272 271 270 269 268 268 267
278 278 277 276 275 276 275 275 275 274 273 273 273 274 273 273 274 274 274 275 276 277 278 277 276 275 274 273 272 271 270 270 271 271 271 271 271 270 271 270 269 268 268
280 279 278 276 276 276 276 275 276 275 275 276 276 275 275 275 275 275 275 276 276 277 277 278 278 277 275 274 272 271 270 270 270 270 270 271 270 270 269 269 268 267 267
281 280 278 276 275 276 276 276 276 276 277 277 278 277 277 277 277 277 277 277 277 277 277 277 278 276 275 274 273 271 270 270 271 270 269 269 269 269 268 268 268 267 267
281 280 278 277 276 276 277 276 276 276 277 277 278 279 278 278 278 278 278 278 278 277 277 277 277 276 275 274 273 272 271 271 270 269 269 269 269 268 268 268 268 267 267
282 280 279 278 278 278 278 277 277 277 277 277 278 279 279 279 278 279 279 279 279 278 278 277 277 276 275 275 274 272 271 271 271 270 270 270 270 271 269 269 269 269 268
282 282 280 279 280 280 280 279 279 278 278 279 279 279 279 279 280 280 280 280 281 280 279 278 277 276 275 274 274 272 271 271 271 271 271 272 271 271 270 270 269 267 267
284 283 281 281 282 282 281 281 281 280 280 280 280 279 279 279 280 280 280 281 281 280 279 278 278 277 276 275 274 273 272 272 272 272 272 272 271 271 271 269 268 267 267
286 285 283 282 282 282 282 283 282 282 282 281 282 281 281 281 281 280 280 281 281 281 280 279 278 277 276 275 275 274 273 273 273 273 272 272 271 270 269 268 268 267 267
Height
5774 5775 5775 5776 5777 5778 5779 5780 5781 5783 5784 5785 5786 5787 5788 5789 5790 5791 5792 5792 5793 5793 5793 5793 5793 5793 5793 5793 5793 5793 5792 5792 5791 5791 5790 5790 5789 5788 5788 5787 5787 5786 5786
5765 5766 5767 5767 5768 5769 5770 5771 5773 5774 5775 5776 5777 5778 5779 5780 5781 5782 5783 5783 5784 5784 5785 5785 5785 5785 5785 5785 5785 5784 5784 5784 5783 5782 5782 5781 5781 5780 5779 5779 5779 5778 5778
5755 5756 5758 5758 5760 5760 5761 5762 5764 5765 5766 5767 5768 5769 5770 5770 5771 5772 5773 5774 5774 5775 5775 5776 5776 5776 5776 5776 5775 5775 5775 5775 5774 5774 5773 5772 5772 5771 5771 5770 5770 5769 5769
5746 5747 5748 5749 5750 5751 5752 5753 5754 5756 5757 5758 5759 5759 5760 5761 5762 5762 5763 5764 5764 5765 5765 5766 5766 5766 5766 5766 5766 5766 5765 5765 5765 5764 5763 5762 5762 5761 5761 5761 5760 5760 5760
5737 5737 5738 5739 5740 5741 5742 5743 5744 5746 5747 5748 5749 5750 5750 5751 5752 5752 5753 5753 5754 5754 5755 5755 5755 5755 5755 5755 5755 5755 5755 5755 5754 5753 5753 5752 5751 5751 5751 5751 5750 5750 5750
5727 5728 5728 5729 5730 5731 5732 5733 5734 5735 5737 5738 5739 5740 5741 5741 5742 5742 5742 5742 5743 5743 5743 5744 5744 5744 5744 5744 5744 5744 5744 5744 5743 5742 5742 5741 5741 5740 5741 5740 5740 5740 5740
5718 5718 5718 5719 5719 5720 5721 5722 5723 5725 5726 5727 5729 5730 5731 5731 5731 5731 5731 5732 5732 5732 5732 5732 5732 5732 5732 5732 5732 5732 5732 5731 5731 5730 5730 5730 5730 5729 5729 5730 5730 5729 5729
5708 5707 5707 5708 5709 5710 5711 5712 5713 5714 5716 5716 5717 5718 5720 5721 5721 5721 5721 5721 5720 5720 5720 5720 5719 5719 5719 5719 5719 5719 5719 5718 5718 5717 5717 5717 5718 5718 5718 5718 5718 5718 5718
5697 5697 5697 5698 5698 5698 5700 5701 5702 5703 5704 5705 5705 5706 5707 5708 5710 5711 5710 5709 5709 5708 5708 5707 5707 5707 5707 5707 5706 5706 5706 5705 5705 5705 5704 5704 5705 5705 5706 5706 5706 5706 5706
5687 5686 5686 5686 5687 5688 5689 5690 5690 5691 5692 5693 5693 5693 5693 5694 5695 5697 5699 5697 5696 5696 5695 5694 5693 5693 5693 5693 5693 5693 5692 5692 5692 5691 5691 5691 5691 5692 5692 5692 5692 5693 5693
5677 5676 5676 5676 5676 5677 5678 5678 5679 5679 5680 5681 5681 5681 5681 5681 5681 5682 5684 5685 5684 5683 5682 5681 5680 5680 5679 5679 5679 5679 5679 5678 5678 5677 5677 5677 5677 5678 5678 5678 5678 5678 5678
5666 5666 5665 5665 5665 5665 5666 5666 5666 5667 5667 5668 5668 5668 5668 5668 5668 5668 5669 5669 5670 5670 5669 5667 5667 5666 5666 5666 5665 5665 5664 5664 5664 5664 5664 5663 5663 5664 5664 5664 5664 5664 5664
5656 5655 5654 5654 5654 5653 5653 5654 5654 5654 5655 5655 5655 5655 5655 5655 5654 5654 5654 5654 5655 5656 5656 5654 5653 5652 5651 5651 5651 5650 5650 5650 5649 5649 5650 5650 5649 5649 5649 5649 5650 5650 5650
5645 5645 5643 5643 5642 5642 5641 5641 5641 5641 5642 5642 5642 5642 5642 5642 5641 5640 5640 5639 5640 5642 5642 5641 5639 5637 5636 5636 5635 5635 5635 5634 5634 5634 5635 5635 5634 5635 5635 5635 5635 5635 5636
5635 5634 5633 5632 5631 5630 5629 5629 5628 5628 5628 5628 5628 5629 5629 5629 5628 5627 5626 5626 5626 5627 5629 5628 5626 5623 5621 5621 5620 5619 5619 5619 5619 5619 5619 5619 5619 5620 5620 5620 5621 5621 5622
5624 5623 5621 5620 5619 5618 5617 5616 5616 5615 5615 5615 5616 5616 5616 5616 5615 5614 5613 5613 5612 5611 5613 5614 5611 5609 5607 5606 5605 5604 5604 5604 5604 5604 5604 5604 5604 5605 5605 5606 5606 5606 5607
5613 5611 5610 5608 5607 5606 5605 5604 5604 5603 5603 5603 5603 5604 5604 5603 5602 5602 5600 5599 5598 5597 5597 5598 5597 5595 5593 5592 5591 5590 5589 5590 5590 5590 5590 5590 5590 5590 5590 5591 5591 5592 5592
5602 5600 5598 5596 5595 5594 5593 5592 5592 5591 5591 5591 5591 5591 5591 5590 5589 5588 5587 5586 5585 5583 5582 5583 5583 5581 5579 5578 5577 5576 5575 5575 5575 5576 5575 5576 5576 5576 5576 5576 5577 5577 5578
5590 5588 5587 5585 5584 5582 5582 5581 5580 5580 5579 5579 5579 5579 5578 5577 5576 5575 5574 5573 5571 5570 5568 5567 5567 5566 5565 5563 5562 5562 5561 5561 5561 5561 5561 5561 5561 5561 5562 5562 5562 5563 5564
5579 5577 5575 5574 5573 5571 5571 5570 5569 5569 5568 5568 5567 5566 5565 5564 5563 5562 5561 5559 5558 5556 5554 5553 5553 5552 5550 5549 5548 5548 5548 5548 5548 5547 5547 5547 5547 5548 5548 5548 5549 5549 5549
5568 5566 5564 5563 5562 5561 5560 5559 5558 5558 5557 5556 5555 5554 5553 5552 5550 5548 5547 5546 5544 5542 5541 5539 5539 5537 5536 5535 5534 5534 5534 5534 5534 5533 5533 5534 5534 5534 5534 5534 5534 5535 5535
5556 5555 5553 5552 5551 5550 5549 5548 5547 5546 5545 5544 5543 5542 5540 5539 5537 5535 5534 5532 5530 5528 5527 5526 5525 5524 5523 5521 5520 5519 5519 5520 5521 5521 5520 5520 5520 5520 5521 5521 5521 5521 5521
5546 5544 5543 5542 5541 5539 5538 5537 5536 5535 5534 5533 5531 5530 5528 5526 5525 5523 5521 5519 5517 5515 5513 5512 5511 5511 5509 5508 5507 5506 5506 5506 5506 5507 5506 5507 5506 5507 5507 5507 5506 5507 5507
5536 5534 5532 5531 5530 5529 5528 5526 5525 5523 5522 5521 5519 5518 5516 5515 5513 5511 5509 5507 5505 5503 5501 5499 5499 5497 5495 5494 5492 5492 5492 5492 5493 5493 5492 5493 5493 5493 5493 5493 5493 5493 5494
5526 5524 5522 5521 5520 5519 5517 5516 5514 5513 5511 5510 5508 5506 5504 5503 5501 5499 5497 5495 5493 5491 5488 5486 5485 5484 5482 5481 5479 5479 5479 5479 5480 5481 5479 5478 5479 5479 5479 5479 5480 5480 5481
5516 5514 5513 5511 5510 5509 5507 5505 5503 5502 5501 5499 5497 5495 5493 5491 5488 5486 5484 5483 5481 5479 5476 5474 5472 5471 5469 5468 5467 5466 5465 5465 5466 5467 5466 5465 5465 5465 5466 5467 5467 5468 5468